| time (UTC) | temp F | wind direction | speed MPH | gust MPH | rain 1hr in | rain 24hr in | rain mn in | humidity % | barometer mb |
| 20260509074527 | 51 | 167 | 12.0 | 15.0 | 0.00 | 0.00 | 0.00 | 86 | 1002.1 |
| 20260509074058 | 51 | 167 | 12.0 | 14.0 | 0.00 | 0.00 | 0.00 | 86 | 1002.2 |
| 20260509073524 | 51 | 181 | 12.0 | 14.0 | 0.00 | 0.00 | 0.00 | 86 | 1002.3 |
| 20260509073049 | 51 | 175 | 12.0 | 14.0 | 0.00 | 0.00 | 0.00 | 86 | 1002.3 |
| 20260509072531 | 51 | 179 | 12.0 | 14.0 | 0.00 | 0.00 | 0.00 | 85 | 1002.3 |
| 20260509072025 | 51 | 175 | 12.0 | 14.0 | 0.00 | 0.00 | 0.00 | 85 | 1002.3 |
| 20260509071535 | 51 | 169 | 13.0 | 14.0 | 0.00 | 0.00 | 0.00 | 85 | 1002.4 |
| 20260509071028 | 52 | 171 | 11.0 | 14.0 | 0.00 | 0.00 | 0.00 | 85 | 1002.5 |
| 20260509070559 | 52 | 165 | 12.0 | 13.0 | 0.00 | 0.00 | 0.00 | 84 | 1002.4 |
| 20260509070030 | 52 | 172 | 10.0 | 15.0 | 0.00 | 0.00 | 0.00 | 84 | 1002.4 |
| 20260509065538 | 52 | 169 | 11.0 | 15.0 | 0.00 | 0.00 | 0.00 | 83 | 1002.5 |
| 20260509065100 | 52 | 163 | 11.0 | 16.0 | 0.00 | 0.00 | 0.00 | 83 | 1002.5 |
| 20260509064525 | 52 | 163 | 15.0 | 16.0 | 0.00 | 0.00 | 0.00 | 83 | 1002.5 |
| 20260509064104 | 52 | 166 | 13.0 | 15.0 | 0.00 | 0.00 | 0.00 | 82 | 1002.6 |
| 20260509063524 | 52 | 166 | 12.0 | 14.0 | 0.00 | 0.00 | 0.00 | 81 | 1002.7 |
| 20260509063036 | 52 | 170 | 13.0 | 14.0 | 0.00 | 0.00 | 0.00 | 81 | 1002.7 |
| 20260509062548 | 52 | 166 | 12.0 | 14.0 | 0.00 | 0.00 | 0.00 | 80 | 1002.8 |
| 20260509062035 | 53 | 156 | 11.0 | 14.0 | 0.00 | 0.00 | 0.00 | 80 | 1002.9 |
| 20260509061525 | 53 | 163 | 11.0 | 14.0 | 0.00 | 0.00 | 0.00 | 78 | 1003.0 |
| 20260509061039 | 53 | 157 | 11.0 | 14.0 | 0.00 | 0.00 | 0.00 | 78 | 1003.0 |
| 20260509060527 | 53 | 160 | 12.0 | 14.0 | 0.00 | 0.00 | 0.00 | 77 | 1003.1 |
| 20260509060043 | 53 | 160 | 11.0 | 14.0 | 0.00 | 0.00 | 0.00 | 75 | 1003.0 |
| 20260509055553 | 53 | 158 | 12.0 | 15.0 | 0.00 | 0.00 | 0.00 | 76 | 1003.1 |
| 20260509055028 | 53 | 151 | 13.0 | 15.0 | 0.00 | 0.00 | 0.00 | 75 | 1003.2 |
| 20260509054041 | 53 | 154 | 12.0 | 14.0 | 0.00 | 0.00 | 0.00 | 73 | 1003.3 |
| 20260509053530 | 53 | 148 | 12.0 | 13.0 | 0.00 | 0.00 | 0.00 | 70 | 1003.2 |
| 20260509053037 | 53 | 155 | 10.0 | 12.0 | 0.00 | 0.00 | 0.00 | 71 | 1003.4 |
| 20260509052525 | 53 | 156 | 11.0 | 14.0 | 0.00 | 0.00 | 0.00 | 68 | 1003.5 |
| 20260509052035 | 53 | 152 | 11.0 | 15.0 | 0.00 | 0.00 | 0.00 | 69 | 1003.5 |
| 20260509051548 | 54 | 155 | 13.0 | 15.0 | 0.00 | 0.00 | 0.00 | 68 | 1003.5 |
| 20260509051037 | 54 | 155 | 10.0 | 12.0 | 0.00 | 0.00 | 0.00 | 69 | 1003.5 |
| 20260509050523 | 55 | 155 | 9.0 | 11.0 | 0.00 | 0.00 | 0.00 | 70 | 1003.4 |
| 20260509050037 | 56 | 186 | 8.0 | 9.0 | 0.00 | 0.00 | 0.00 | 73 | 1003.5 |
| 20260509045041 | 56 | 211 | 8.0 | 9.0 | 0.00 | 0.00 | 0.00 | 71 | 1003.6 |
| 20260509044529 | 56 | 206 | 7.0 | 9.0 | 0.00 | 0.00 | 0.00 | 72 | 1003.6 |
| 20260509044035 | 56 | 208 | 8.0 | 9.0 | 0.00 | 0.00 | 0.00 | 71 | 1003.6 |
| 20260509043523 | 56 | 200 | 8.0 | 9.0 | 0.00 | 0.00 | 0.00 | 72 | 1003.6 |
| 20260509043038 | 56 | 195 | 7.0 | 8.0 | 0.00 | 0.00 | 0.00 | 73 | 1003.7 |
| 20260509042527 | 56 | 192 | 7.0 | 10.0 | 0.00 | 0.00 | 0.00 | 73 | 1003.7 |
| 20260509042032 | 56 | 189 | 7.0 | 10.0 | 0.00 | 0.00 | 0.00 | 71 | 1003.8 |
| 20260509041525 | 56 | 198 | 7.0 | 10.0 | 0.00 | 0.00 | 0.00 | 75 | 1003.8 |
| 20260509041037 | 56 | 208 | 8.0 | 10.0 | 0.00 | 0.00 | 0.00 | 73 | 1003.9 |
| 20260509040540 | 56 | 198 | 8.0 | 9.0 | 0.00 | 0.00 | 0.00 | 73 | 1003.8 |
| 20260509040047 | 56 | 212 | 8.0 | 11.0 | 0.00 | 0.00 | 0.00 | 73 | 1003.9 |
| 20260509035524 | 56 | 211 | 8.0 | 11.0 | 0.00 | 0.00 | 0.00 | 73 | 1003.9 |
| 20260509035058 | 56 | 216 | 9.0 | 11.0 | 0.00 | 0.00 | 0.00 | 74 | 1003.9 |
| 20260509034548 | 57 | 215 | 9.0 | 10.0 | 0.00 | 0.00 | 0.00 | 73 | 1003.9 |
| 20260509034038 | 57 | 215 | 8.0 | 11.0 | 0.00 | 0.00 | 0.00 | 72 | 1003.9 |
| 20260509033526 | 57 | 219 | 9.0 | 11.0 | 0.00 | 0.00 | 0.00 | 72 | 1004.0 |
| 20260509033034 | 57 | 204 | 9.0 | 11.0 | 0.00 | 0.00 | 0.00 | 71 | 1004.0 |
| 20260509032550 | 57 | 204 | 10.0 | 11.0 | 0.00 | 0.00 | 0.00 | 71 | 1004.0 |
| 20260509032054 | 57 | 206 | 10.0 | 12.0 | 0.00 | 0.00 | 0.00 | 72 | 1004.0 |
| 20260509031539 | 57 | 202 | 10.0 | 12.0 | 0.00 | 0.00 | 0.00 | 72 | 1004.1 |
| 20260509031032 | 57 | 207 | 9.0 | 12.0 | 0.00 | 0.00 | 0.00 | 70 | 1004.1 |
| 20260509030524 | 57 | 207 | 10.0 | 12.0 | 0.00 | 0.00 | 0.00 | 70 | 1004.2 |
| 20260509030036 | 57 | 200 | 10.0 | 12.0 | 0.00 | 0.00 | 0.00 | 69 | 1004.2 |
| 20260509025544 | 57 | 209 | 10.0 | 12.0 | 0.00 | 0.00 | 0.00 | 70 | 1004.2 |
| 20260509025034 | 57 | 205 | 11.0 | 13.0 | 0.00 | 0.00 | 0.00 | 70 | 1004.2 |
| 20260509024524 | 57 | 205 | 11.0 | 12.0 | 0.00 | 0.00 | 0.00 | 72 | 1004.2 |
| 20260509024117 | 57 | 204 | 10.0 | 12.0 | 0.00 | 0.00 | 0.00 | 73 | 1004.2 |
| 20260509023532 | 57 | 198 | 10.0 | 12.0 | 0.00 | 0.00 | 0.00 | 75 | 1004.2 |
| 20260509023025 | 57 | 199 | 9.0 | 11.0 | 0.00 | 0.00 | 0.00 | 77 | 1004.2 |
| 20260509022528 | 57 | 203 | 9.0 | 11.0 | 0.00 | 0.00 | 0.00 | 77 | 1004.3 |
| 20260509022033 | 57 | 201 | 9.0 | 10.0 | 0.00 | 0.00 | 0.00 | 78 | 1004.3 |
| 20260509021539 | 57 | 202 | 8.0 | 10.0 | 0.00 | 0.00 | 0.00 | 79 | 1004.3 |
| 20260509021026 | 57 | 204 | 8.0 | 11.0 | 0.00 | 0.00 | 0.00 | 76 | 1004.3 |
| 20260509020047 | 58 | 204 | 9.0 | 11.0 | 0.00 | 0.00 | 0.00 | 75 | 1004.3 |
| 20260509015533 | 58 | 208 | 9.0 | 11.0 | 0.00 | 0.00 | 0.00 | 73 | 1004.3 |
| 20260509015047 | 58 | 217 | 9.0 | 12.0 | 0.00 | 0.00 | 0.00 | 73 | 1004.2 |
| 20260509014545 | 58 | 218 | 10.0 | 12.0 | 0.00 | 0.00 | 0.00 | 72 | 1004.2 |
| 20260509014034 | 58 | 208 | 9.0 | 12.0 | 0.00 | 0.00 | 0.00 | 73 | 1004.2 |
| 20260509013524 | 58 | 210 | 10.0 | 12.0 | 0.00 | 0.00 | 0.00 | 72 | 1004.1 |
| 20260509012540 | 58 | 210 | 9.0 | 11.0 | 0.00 | 0.00 | 0.00 | 71 | 1004.1 |
| 20260509012033 | 58 | 211 | 10.0 | 11.0 | 0.00 | 0.00 | 0.00 | 70 | 1004.1 |
| 20260509011543 | 59 | 220 | 9.0 | 11.0 | 0.00 | 0.00 | 0.00 | 70 | 1004.0 |
| 20260509011023 | 59 | 212 | 10.0 | 13.0 | 0.00 | 0.00 | 0.00 | 68 | 1004.0 |
| 20260509010531 | 59 | 200 | 10.0 | 14.0 | 0.00 | 0.00 | 0.00 | 65 | 1004.0 |
| 20260509010025 | 60 | 213 | 12.0 | 15.0 | 0.00 | 0.00 | 0.00 | 64 | 1004.0 |
| 20260509005529 | 60 | 222 | 12.0 | 15.0 | 0.00 | 0.00 | 0.00 | 64 | 1003.9 |
| 20260509005043 | 60 | 217 | 13.0 | 16.0 | 0.00 | 0.00 | 0.00 | 61 | 1003.9 |
| 20260509004529 | 60 | 225 | 13.0 | 16.0 | 0.00 | 0.00 | 0.00 | 60 | 1004.0 |
| 20260509004041 | 60 | 221 | 13.0 | 15.0 | 0.00 | 0.00 | 0.00 | 62 | 1003.9 |
| 20260509003552 | 60 | 212 | 12.0 | 14.0 | 0.00 | 0.00 | 0.00 | 65 | 1003.9 |
| 20260509003024 | 60 | 212 | 10.0 | 13.0 | 0.00 | 0.00 | 0.00 | 63 | 1003.9 |
| 20260509002532 | 60 | 215 | 11.0 | 14.0 | 0.00 | 0.00 | 0.00 | 60 | 1003.9 |
| 20260509002104 | 60 | 214 | 12.0 | 15.0 | 0.00 | 0.00 | 0.00 | 61 | 1003.9 |
| 20260509001533 | 60 | 219 | 12.0 | 15.0 | 0.00 | 0.00 | 0.00 | 61 | 1003.9 |
| 20260509001026 | 60 | 215 | 11.0 | 15.0 | 0.00 | 0.00 | 0.00 | 59 | 1003.9 |
| 20260509000534 | 60 | 219 | 12.0 | 15.0 | 0.00 | 0.00 | 0.00 | 55 | 1003.8 |
| 20260509000041 | 61 | 217 | 12.0 | 17.0 | 0.00 | 0.00 | 0.00 | 60 | 1003.8 |
| 20260508235525 | 61 | 216 | 14.0 | 17.0 | 0.00 | 0.00 | 0.00 | 52 | 1003.8 |
| 20260508235101 | 61 | 222 | 14.0 | 18.0 | 0.00 | 0.00 | 0.00 | 53 | 1003.9 |
| 20260508234531 | 61 | 222 | 15.0 | 18.0 | 0.00 | 0.00 | 0.00 | 52 | 1003.9 |
| 20260508234024 | 61 | 218 | 14.0 | 19.0 | 0.00 | 0.00 | 0.00 | 55 | 1004.0 |
| 20260508233532 | 61 | 217 | 16.0 | 19.0 | 0.00 | 0.00 | 0.00 | 53 | 1004.0 |
| 20260508233026 | 61 | 225 | 16.0 | 19.0 | 0.00 | 0.00 | 0.00 | 59 | 1004.0 |
| 20260508232532 | 61 | 214 | 15.0 | 19.0 | 0.00 | 0.00 | 0.00 | 57 | 1003.9 |
| 20260508232043 | 61 | 212 | 16.0 | 19.0 | 0.00 | 0.00 | 0.00 | 54 | 1004.0 |
| 20260508231531 | 61 | 215 | 14.0 | 19.0 | 0.00 | 0.00 | 0.00 | 58 | 1004.0 |
| 20260508231037 | 61 | 210 | 16.0 | 19.0 | 0.00 | 0.00 | 0.00 | 54 | 1004.0 |
| 20260508230529 | 61 | 220 | 15.0 | 20.0 | 0.00 | 0.00 | 0.00 | 57 | 1004.0 |
| 20260508230024 | 61 | 210 | 14.0 | 18.0 | 0.00 | 0.00 | 0.00 | 54 | 1004.0 |
| 20260508225533 | 61 | 218 | 16.0 | 21.0 | 0.00 | 0.00 | 0.00 | 58 | 1004.1 |
| 20260508225104 | 61 | 210 | 17.0 | 21.0 | 0.00 | 0.00 | 0.00 | 55 | 1004.1 |
| 20260508224556 | 61 | 195 | 15.0 | 21.0 | 0.00 | 0.00 | 0.00 | 56 | 1004.1 |
| 20260508224045 | 61 | 207 | 18.0 | 22.0 | 0.00 | 0.00 | 0.00 | 55 | 1004.1 |
| 20260508223530 | 61 | 218 | 19.0 | 22.0 | 0.00 | 0.00 | 0.00 | 51 | 1004.1 |
| 20260508223024 | 61 | 213 | 18.0 | 24.0 | 0.00 | 0.00 | 0.00 | 53 | 1004.2 |
| 20260508222557 | 61 | 218 | 17.0 | 24.0 | 0.00 | 0.00 | 0.00 | 54 | 1004.2 |
| 20260508222031 | 61 | 226 | 20.0 | 23.0 | 0.00 | 0.00 | 0.00 | 50 | 1004.3 |
| 20260508221541 | 61 | 208 | 17.0 | 20.0 | 0.00 | 0.00 | 0.00 | 51 | 1004.3 |
| 20260508221034 | 61 | 213 | 15.0 | 20.0 | 0.00 | 0.00 | 0.00 | 56 | 1004.3 |
| 20260508220522 | 61 | 218 | 16.0 | 21.0 | 0.00 | 0.00 | 0.00 | 54 | 1004.4 |
| 20260508220027 | 61 | 223 | 17.0 | 22.0 | 0.00 | 0.00 | 0.00 | 50 | 1004.4 |
| 20260508215536 | 61 | 231 | 19.0 | 22.0 | 0.00 | 0.00 | 0.00 | 53 | 1004.3 |
| 20260508215029 | 61 | 221 | 17.0 | 22.0 | 0.00 | 0.00 | 0.00 | 52 | 1004.4 |
| 20260508214536 | 61 | 223 | 16.0 | 23.0 | 0.00 | 0.00 | 0.00 | 56 | 1004.3 |
| 20260508214051 | 61 | 222 | 20.0 | 23.0 | 0.00 | 0.00 | 0.00 | 48 | 1004.3 |
| 20260508213541 | 61 | 223 | 17.0 | 23.0 | 0.00 | 0.00 | 0.00 | 51 | 1004.4 |
| 20260508213033 | 61 | 216 | 18.0 | 24.0 | 0.00 | 0.00 | 0.00 | 52 | 1004.4 |
| 20260508212536 | 61 | 225 | 20.0 | 24.0 | 0.00 | 0.00 | 0.00 | 50 | 1004.4 |
| 20260508212029 | 61 | 224 | 18.0 | 24.0 | 0.00 | 0.00 | 0.00 | 51 | 1004.5 |
| 20260508211526 | 61 | 217 | 17.0 | 22.0 | 0.00 | 0.00 | 0.00 | 55 | 1004.5 |
| 20260508211100 | 61 | 222 | 19.0 | 24.0 | 0.00 | 0.00 | 0.00 | 54 | 1004.7 |
| 20260508210547 | 61 | 213 | 18.0 | 25.0 | 0.00 | 0.00 | 0.00 | 52 | 1004.7 |
| 20260508210122 | 61 | 216 | 19.0 | 25.0 | 0.00 | 0.00 | 0.00 | 57 | 1004.8 |
| 20260508205534 | 61 | 223 | 19.0 | 24.0 | 0.00 | 0.00 | 0.00 | 51 | 1004.7 |
| 20260508205026 | 61 | 216 | 16.0 | 25.0 | 0.00 | 0.00 | 0.00 | 50 | 1004.8 |
| 20260508204555 | 61 | 216 | 20.0 | 25.0 | 0.00 | 0.00 | 0.00 | 55 | 1004.9 |
| 20260508204042 | 61 | 229 | 20.0 | 24.0 | 0.00 | 0.00 | 0.00 | 50 | 1005.0 |
| 20260508203531 | 61 | 214 | 16.0 | 23.0 | 0.00 | 0.00 | 0.00 | 51 | 1005.0 |
| 20260508203048 | 60 | 217 | 15.0 | 24.0 | 0.00 | 0.00 | 0.00 | 47 | 1005.1 |
| 20260508202534 | 61 | 221 | 20.0 | 24.0 | 0.00 | 0.00 | 0.00 | 49 | 1005.2 |
| 20260508202024 | 60 | 230 | 19.0 | 23.0 | 0.00 | 0.00 | 0.00 | 49 | 1005.3 |
| 20260508201531 | 60 | 223 | 19.0 | 22.0 | 0.00 | 0.00 | 0.00 | 52 | 1005.3 |
| 20260508201025 | 61 | 217 | 17.0 | 23.0 | 0.00 | 0.00 | 0.00 | 48 | 1005.4 |
| 20260508200538 | 60 | 207 | 20.0 | 23.0 | 0.00 | 0.00 | 0.00 | 53 | 1005.4 |
| 20260508200031 | 60 | 217 | 18.0 | 22.0 | 0.00 | 0.00 | 0.00 | 51 | 1005.5 |
| 20260508195532 | 60 | 224 | 17.0 | 20.0 | 0.00 | 0.00 | 0.00 | 57 | 1005.6 |
| 20260508195046 | 60 | 218 | 16.0 | 23.0 | 0.00 | 0.00 | 0.00 | 53 | 1005.7 |
| 20260508194535 | 60 | 221 | 18.0 | 23.0 | 0.00 | 0.00 | 0.00 | 49 | 1005.8 |
| 20260508194026 | 60 | 223 | 18.0 | 22.0 | 0.00 | 0.00 | 0.00 | 52 | 1005.8 |
| 20260508193614 | 60 | 217 | 17.0 | 24.0 | 0.00 | 0.00 | 0.00 | 50 | 1005.9 |
| 20260508193053 | 60 | 222 | 18.0 | 23.0 | 0.00 | 0.00 | 0.00 | 48 | 1006.0 |
| 20260508192523 | 60 | 223 | 18.0 | 24.0 | 0.00 | 0.00 | 0.00 | 50 | 1006.1 |
| 20260508192030 | 60 | 221 | 18.0 | 22.0 | 0.00 | 0.00 | 0.00 | 49 | 1006.2 |
| 20260508191537 | 59 | 214 | 17.0 | 22.0 | 0.00 | 0.00 | 0.00 | 51 | 1006.2 |
| 20260508191028 | 59 | 220 | 16.0 | 21.0 | 0.00 | 0.00 | 0.00 | 51 | 1006.3 |
| 20260508190534 | 60 | 228 | 17.0 | 21.0 | 0.00 | 0.00 | 0.00 | 53 | 1006.4 |
| 20260508190113 | 60 | 226 | 18.0 | 21.0 | 0.00 | 0.00 | 0.00 | 50 | 1006.4 |
| 20260508185550 | 60 | 225 | 16.0 | 20.0 | 0.00 | 0.00 | 0.00 | 46 | 1006.6 |
| 20260508185037 | 60 | 224 | 15.0 | 19.0 | 0.00 | 0.00 | 0.00 | 50 | 1006.6 |
| 20260508184526 | 59 | 227 | 15.0 | 19.0 | 0.00 | 0.00 | 0.00 | 49 | 1006.7 |
| 20260508184039 | 59 | 228 | 16.0 | 21.0 | 0.00 | 0.00 | 0.00 | 50 | 1006.8 |
| 20260508183525 | 59 | 222 | 17.0 | 22.0 | 0.00 | 0.00 | 0.00 | 47 | 1006.8 |
| 20260508183035 | 59 | 215 | 15.0 | 20.0 | 0.00 | 0.00 | 0.00 | 53 | 1006.9 |
| 20260508182521 | 59 | 231 | 15.0 | 20.0 | 0.00 | 0.00 | 0.00 | 52 | 1007.0 |
| 20260508182035 | 59 | 225 | 16.0 | 19.0 | 0.00 | 0.00 | 0.00 | 50 | 1007.0 |
| 20260508181539 | 59 | 217 | 15.0 | 20.0 | 0.00 | 0.00 | 0.00 | 50 | 1007.2 |
| 20260508181029 | 59 | 229 | 16.0 | 21.0 | 0.00 | 0.00 | 0.00 | 55 | 1007.3 |
| 20260508180538 | 58 | 227 | 16.0 | 21.0 | 0.00 | 0.00 | 0.00 | 53 | 1007.3 |
| 20260508180028 | 58 | 222 | 17.0 | 21.0 | 0.00 | 0.00 | 0.00 | 52 | 1007.4 |
| 20260508175530 | 58 | 227 | 15.0 | 20.0 | 0.00 | 0.00 | 0.00 | 50 | 1007.4 |
| 20260508175040 | 58 | 234 | 16.0 | 19.0 | 0.00 | 0.00 | 0.00 | 56 | 1007.5 |
| 20260508174530 | 58 | 232 | 16.0 | 21.0 | 0.00 | 0.00 | 0.00 | 51 | 1007.6 |
| 20260508174036 | 58 | 222 | 16.0 | 19.0 | 0.00 | 0.00 | 0.00 | 55 | 1007.7 |
| 20260508173545 | 57 | 224 | 14.0 | 18.0 | 0.00 | 0.00 | 0.00 | 52 | 1007.7 |
| 20260508173036 | 57 | 225 | 15.0 | 19.0 | 0.00 | 0.00 | 0.00 | 51 | 1007.8 |
| 20260508172525 | 58 | 228 | 14.0 | 19.0 | 0.00 | 0.00 | 0.00 | 56 | 1007.9 |
| 20260508172057 | 57 | 240 | 13.0 | 19.0 | 0.00 | 0.00 | 0.00 | 55 | 1008.0 |
| 20260508171557 | 57 | 229 | 16.0 | 21.0 | 0.00 | 0.00 | 0.00 | 59 | 1007.9 |
| 20260508171023 | 58 | 228 | 17.0 | 21.0 | 0.00 | 0.00 | 0.00 | 54 | 1008.1 |
| 20260508170555 | 58 | 236 | 16.0 | 20.0 | 0.00 | 0.00 | 0.00 | 55 | 1008.2 |
| 20260508165548 | 57 | 226 | 15.0 | 20.0 | 0.00 | 0.00 | 0.00 | 58 | 1008.3 |
| 20260508165102 | 58 | 235 | 16.0 | 19.0 | 0.00 | 0.00 | 0.00 | 56 | 1008.3 |
| 20260508164529 | 57 | 242 | 15.0 | 18.0 | 0.00 | 0.00 | 0.00 | 62 | 1008.3 |
| 20260508164037 | 57 | 219 | 15.0 | 17.0 | 0.00 | 0.00 | 0.00 | 61 | 1008.4 |
| 20260508163525 | 56 | 239 | 14.0 | 18.0 | 0.00 | 0.00 | 0.00 | 57 | 1008.4 |
| 20260508163035 | 57 | 235 | 15.0 | 17.0 | 0.00 | 0.00 | 0.00 | 59 | 1008.4 |
| 20260508162523 | 56 | 239 | 14.0 | 19.0 | 0.00 | 0.00 | 0.00 | 58 | 1008.4 |
| 20260508162030 | 56 | 240 | 16.0 | 19.0 | 0.00 | 0.00 | 0.00 | 60 | 1008.6 |
| 20260508161537 | 55 | 232 | 13.0 | 19.0 | 0.00 | 0.00 | 0.00 | 62 | 1008.6 |
| 20260508161113 | 56 | 228 | 15.0 | 19.0 | 0.00 | 0.00 | 0.00 | 59 | 1008.6 |
| 20260508160523 | 55 | 229 | 16.0 | 19.0 | 0.00 | 0.00 | 0.00 | 61 | 1008.7 |
| 20260508160033 | 56 | 230 | 15.0 | 19.0 | 0.00 | 0.00 | 0.00 | 62 | 1008.7 |
| 20260508155547 | 55 | 239 | 16.0 | 19.0 | 0.00 | 0.00 | 0.00 | 61 | 1008.7 |
| 20260508155024 | 55 | 239 | 15.0 | 18.0 | 0.00 | 0.00 | 0.00 | 64 | 1008.8 |
| 20260508154531 | 55 | 242 | 16.0 | 18.0 | 0.00 | 0.00 | 0.00 | 61 | 1008.8 |
| 20260508154041 | 54 | 237 | 13.0 | 17.0 | 0.00 | 0.00 | 0.00 | 63 | 1008.8 |
| 20260508153524 | 55 | 225 | 14.0 | 18.0 | 0.00 | 0.00 | 0.00 | 64 | 1008.8 |
| 20260508153036 | 55 | 240 | 16.0 | 18.0 | 0.00 | 0.00 | 0.00 | 63 | 1008.9 |
| 20260508152523 | 54 | 229 | 14.0 | 20.0 | 0.00 | 0.00 | 0.00 | 65 | 1008.8 |
| 20260508152054 | 53 | 225 | 14.0 | 20.0 | 0.00 | 0.00 | 0.00 | 65 | 1008.9 |
| 20260508151524 | 54 | 231 | 15.0 | 18.0 | 0.00 | 0.00 | 0.00 | 68 | 1009.1 |
| 20260508151038 | 54 | 239 | 15.0 | 18.0 | 0.00 | 0.00 | 0.00 | 66 | 1009.1 |
| 20260508150525 | 53 | 235 | 14.0 | 18.0 | 0.00 | 0.00 | 0.00 | 66 | 1009.1 |
| 20260508150033 | 53 | 253 | 14.0 | 18.0 | 0.00 | 0.00 | 0.00 | 64 | 1009.1 |
| 20260508145538 | 53 | 243 | 15.0 | 17.0 | 0.00 | 0.00 | 0.00 | 65 | 1009.1 |
| 20260508145047 | 53 | 235 | 14.0 | 17.0 | 0.00 | 0.00 | 0.00 | 66 | 1009.1 |
| 20260508144059 | 52 | 228 | 14.0 | 16.0 | 0.00 | 0.00 | 0.00 | 66 | 1009.2 |
| 20260508143526 | 52 | 222 | 14.0 | 17.0 | 0.00 | 0.00 | 0.00 | 67 | 1009.3 |
| 20260508143034 | 52 | 238 | 15.0 | 17.0 | 0.00 | 0.00 | 0.00 | 67 | 1009.3 |
| 20260508142540 | 52 | 238 | 13.0 | 17.0 | 0.00 | 0.00 | 0.00 | 70 | 1009.2 |
| 20260508142033 | 52 | 238 | 15.0 | 18.0 | 0.00 | 0.00 | 0.00 | 69 | 1009.2 |
| 20260508141522 | 51 | 234 | 13.0 | 18.0 | 0.00 | 0.00 | 0.00 | 70 | 1009.2 |
| 20260508141026 | 51 | 223 | 14.0 | 18.0 | 0.00 | 0.00 | 0.00 | 70 | 1009.2 |
| 20260508140534 | 51 | 225 | 14.0 | 16.0 | 0.00 | 0.00 | 0.00 | 69 | 1009.2 |
| 20260508140026 | 51 | 244 | 13.0 | 16.0 | 0.00 | 0.00 | 0.00 | 71 | 1009.2 |
| 20260508135529 | 51 | 228 | 13.0 | 16.0 | 0.00 | 0.00 | 0.00 | 71 | 1009.2 |
| 20260508135042 | 51 | 213 | 13.0 | 17.0 | 0.00 | 0.00 | 0.00 | 71 | 1009.2 |
| 20260508134557 | 51 | 228 | 13.0 | 17.0 | 0.00 | 0.00 | 0.00 | 72 | 1009.1 |
| 20260508134025 | 51 | 227 | 14.0 | 17.0 | 0.00 | 0.00 | 0.00 | 71 | 1009.2 |
| 20260508133530 | 50 | 240 | 13.0 | 17.0 | 0.00 | 0.00 | 0.00 | 71 | 1009.2 |
| 20260508133042 | 50 | 229 | 14.0 | 16.0 | 0.00 | 0.00 | 0.00 | 72 | 1009.2 |
| 20260508132529 | 51 | 222 | 12.0 | 15.0 | 0.00 | 0.00 | 0.00 | 74 | 1009.2 |
| 20260508132039 | 50 | 231 | 12.0 | 15.0 | 0.00 | 0.00 | 0.00 | 75 | 1009.2 |
| 20260508131525 | 50 | 247 | 11.0 | 15.0 | 0.00 | 0.00 | 0.00 | 73 | 1009.2 |
| 20260508131034 | 50 | 225 | 11.0 | 15.0 | 0.00 | 0.00 | 0.00 | 72 | 1009.2 |
| 20260508130523 | 50 | 226 | 11.0 | 15.0 | 0.00 | 0.00 | 0.00 | 71 | 1009.3 |
| 20260508130055 | 50 | 238 | 12.0 | 15.0 | 0.00 | 0.00 | 0.00 | 73 | 1009.3 |
| 20260508125540 | 50 | 235 | 11.0 | 14.0 | 0.00 | 0.00 | 0.00 | 72 | 1009.3 |
| 20260508125031 | 50 | 247 | 11.0 | 14.0 | 0.00 | 0.00 | 0.00 | 73 | 1009.3 |
| 20260508124522 | 50 | 239 | 11.0 | 14.0 | 0.00 | 0.00 | 0.00 | 73 | 1009.2 |
| 20260508124034 | 49 | 234 | 10.0 | 14.0 | 0.00 | 0.00 | 0.00 | 74 | 1009.3 |
| 20260508123522 | 49 | 253 | 11.0 | 13.0 | 0.00 | 0.00 | 0.00 | 77 | 1009.3 |
| 20260508123054 | 48 | 225 | 9.0 | 13.0 | 0.00 | 0.00 | 0.00 | 79 | 1009.3 |
| 20260508122523 | 48 | 222 | 9.0 | 12.0 | 0.00 | 0.00 | 0.00 | 84 | 1009.3 |
| 20260508122037 | 48 | 207 | 9.0 | 13.0 | 0.00 | 0.00 | 0.00 | 84 | 1009.2 |
| 20260508121522 | 47 | 214 | 11.0 | 14.0 | 0.00 | 0.00 | 0.00 | 84 | 1009.2 |
| 20260508121023 | 47 | 204 | 12.0 | 14.0 | 0.00 | 0.00 | 0.00 | 85 | 1009.1 |
| 20260508120532 | 47 | 201 | 11.0 | 13.0 | 0.00 | 0.00 | 0.00 | 84 | 1009.0 |
| 20260508120039 | 47 | 206 | 9.0 | 12.0 | 0.00 | 0.00 | 0.00 | 84 | 1009.0 |
| 20260508115553 | 47 | 201 | 10.0 | 12.0 | 0.00 | 0.00 | 0.00 | 83 | 1008.9 |
| 20260508115024 | 47 | 196 | 10.0 | 12.0 | 0.00 | 0.00 | 0.00 | 82 | 1008.9 |
| 20260508114525 | 46 | 199 | 9.0 | 11.0 | 0.00 | 0.00 | 0.00 | 81 | 1008.9 |
| 20260508114103 | 46 | 200 | 9.0 | 11.0 | 0.00 | 0.00 | 0.00 | 80 | 1008.8 |
| 20260508113533 | 46 | 199 | 9.0 | 11.0 | 0.00 | 0.00 | 0.00 | 80 | 1008.8 |
| 20260508113025 | 46 | 194 | 9.0 | 11.0 | 0.00 | 0.00 | 0.00 | 79 | 1008.9 |
| 20260508112527 | 46 | 198 | 9.0 | 11.0 | 0.00 | 0.00 | 0.00 | 77 | 1008.9 |
| 20260508112039 | 46 | 200 | 9.0 | 11.0 | 0.00 | 0.00 | 0.00 | 77 | 1008.9 |
| 20260508111527 | 47 | 186 | 8.0 | 11.0 | 0.00 | 0.00 | 0.00 | 76 | 1008.8 |
| 20260508111036 | 47 | 192 | 9.0 | 11.0 | 0.00 | 0.00 | 0.00 | 74 | 1008.8 |
| 20260508110550 | 47 | 191 | 9.0 | 11.0 | 0.00 | 0.00 | 0.00 | 75 | 1008.8 |
| 20260508110039 | 47 | 189 | 8.0 | 9.0 | 0.00 | 0.00 | 0.00 | 74 | 1008.8 |
| 20260508105550 | 46 | 218 | 6.0 | 8.0 | 0.00 | 0.00 | 0.00 | 74 | 1008.9 |
| 20260508105039 | 46 | 200 | 5.0 | 9.0 | 0.00 | 0.00 | 0.00 | 74 | 1008.8 |
| 20260508104529 | 46 | 196 | 6.0 | 9.0 | 0.00 | 0.00 | 0.00 | 74 | 1008.9 |
| 20260508104041 | 45 | 199 | 8.0 | 11.0 | 0.00 | 0.00 | 0.00 | 74 | 1008.9 |
| 20260508103524 | 44 | 225 | 7.0 | 11.0 | 0.00 | 0.00 | 0.00 | 62 | 1008.9 |
| 20260508103103 | 44 | 261 | 4.0 | 8.0 | 0.00 | 0.00 | 0.00 | 62 | 1008.9 |
| 20260508102528 | 44 | 279 | 4.0 | 8.0 | 0.00 | 0.00 | 0.00 | 62 | 1008.9 |
| 20260508102035 | 44 | 269 | 4.0 | 7.0 | 0.00 | 0.00 | 0.00 | 62 | 1008.8 |
| 20260508101542 | 44 | 283 | 3.0 | 5.0 | 0.00 | 0.00 | 0.00 | 61 | 1008.9 |
| 20260508101024 | 44 | 304 | 3.0 | 5.0 | 0.00 | 0.00 | 0.00 | 61 | 1008.9 |
| 20260508100531 | 44 | 314 | 3.0 | 5.0 | 0.00 | 0.00 | 0.00 | 61 | 1008.9 |
| 20260508100025 | 44 | 258 | 3.0 | 5.0 | 0.00 | 0.00 | 0.00 | 61 | 1008.9 |
| 20260508095045 | 44 | 269 | 3.0 | 4.0 | 0.00 | 0.00 | 0.00 | 61 | 1009.0 |
| 20260508094533 | 44 | 292 | 2.0 | 4.0 | 0.00 | 0.00 | 0.00 | 61 | 1008.9 |
| 20260508094129 | 44 | 319 | 2.0 | 5.0 | 0.00 | 0.00 | 0.00 | 61 | 1008.9 |
| 20260508093534 | 44 | 276 | 3.0 | 5.0 | 0.00 | 0.00 | 0.00 | 61 | 1009.0 |
| 20260508093027 | 44 | 262 | 2.0 | 3.0 | 0.00 | 0.00 | 0.00 | 61 | 1009.0 |
| 20260508092538 | 44 | 309 | 2.0 | 4.0 | 0.00 | 0.00 | 0.00 | 61 | 1009.1 |
| 20260508092030 | 44 | 309 | 2.0 | 4.0 | 0.00 | 0.00 | 0.00 | 61 | 1009.0 |
| 20260508091600 | 44 | 291 | 2.0 | 4.0 | 0.00 | 0.00 | 0.00 | 61 | 1009.1 |
| 20260508091057 | 44 | 288 | 2.0 | 4.0 | 0.00 | 0.00 | 0.00 | 62 | 1009.1 |
| 20260508090626 | 44 | 314 | 2.0 | 4.0 | 0.00 | 0.00 | 0.00 | 63 | 1009.0 |
| 20260508090023 | 44 | 314 | 2.0 | 3.0 | 0.00 | 0.00 | 0.00 | 63 | 1009.0 |
| 20260508085530 | 45 | 318 | 2.0 | 3.0 | 0.00 | 0.00 | 0.00 | 64 | 1009.1 |
| 20260508085036 | 45 | 284 | 2.0 | 3.0 | 0.00 | 0.00 | 0.00 | 64 | 1009.1 |
| 20260508084551 | 45 | 303 | 2.0 | 3.0 | 0.00 | 0.00 | 0.00 | 65 | 1009.0 |
| 20260508084024 | 45 | 297 | 2.0 | 3.0 | 0.00 | 0.00 | 0.00 | 65 | 1009.0 |
| 20260508083533 | 45 | 296 | 2.0 | 3.0 | 0.00 | 0.00 | 0.00 | 65 | 1008.9 |
| 20260508083029 | 45 | 314 | 2.0 | 3.0 | 0.00 | 0.00 | 0.00 | 65 | 1009.0 |
| 20260508082602 | 45 | 308 | 2.0 | 3.0 | 0.00 | 0.00 | 0.00 | 65 | 1009.0 |
| 20260508082032 | 45 | 309 | 2.0 | 3.0 | 0.00 | 0.00 | 0.00 | 65 | 1008.9 |
| 20260508081535 | 45 | 308 | 2.0 | 3.0 | 0.00 | 0.00 | 0.00 | 64 | 1009.0 |
| 20260508081028 | 45 | 314 | 2.0 | 4.0 | 0.00 | 0.00 | 0.00 | 65 | 1009.0 |
| 20260508080537 | 45 | 299 | 2.0 | 4.0 | 0.00 | 0.00 | 0.00 | 65 | 1009.0 |
| 20260508080113 | 45 | 303 | 2.0 | 3.0 | 0.00 | 0.00 | 0.00 | 65 | 1009.0 |
| 20260508075532 | 45 | 284 | 2.0 | 3.0 | 0.00 | 0.00 | 0.00 | 65 | 1009.0 |
| 20260508075025 | 45 | 303 | 2.0 | 3.0 | 0.00 | 0.00 | 0.00 | 65 | 1009.0 |